Location: Chantarel
(45.1638°N, 1.7873°E)
Time: 13:59:31
(UTC+00:00)

Meteor 2-4 Rocket - Pass Details

Date: 03 March 2021
Orbit: 799 x 908 km, 81.2° (Epoch: 15 April)

Event Time Altitude Azimuth Distance (km) Brightness Sun altitude
Rises 18:45:58 0° 352° (N) 3,489 7.1 -11.9°
Reaches altitude 10° 18:48:26 10° 356° (N) 2,560 6.3 -12.3°
Maximum altitude 18:54:14 61° 76° (ENE) 1,013 3.8 -13.3°
Drops below altitude 10° 19:00:05 10° 157° (SSE) 2,583 6.0 -14.4°
Sets 19:02:35 0° 161° (SSE) 3,522 6.7 -14.8°
